GW2412 Weather Reports


time (UTC)temp
C
wind
direction
speed
KPH
gust
KPH
rain 1hr
cm
rain 24hr
cm
rain mn
cm
humidity
%
barometer
mb
20260906225517 16 355 12.9 22.5 0.00 0.71 0.46 1 1016.9
20260906225020 15 323 12.9 22.5 0.00 0.71 0.46 1 1017.0
20260906224549 15 346 14.5 20.9 0.00 0.71 0.46 1 1017.2
20260906224019 15 344 16.1 20.9 0.00 0.71 0.46 1 1017.1
20260906223517 15 333 16.1 22.5 0.00 0.71 0.46 1 1017.2
20260906223042 15 325 14.5 19.3 0.00 0.71 0.46 1 1017.0
20260906222515 15 299 11.3 19.3 0.00 0.71 0.46 1 1017.2
20260906222016 15 315 14.5 19.3 0.00 0.71 0.46 1 1017.2
20260906221549 15 298 12.9 19.3 0.00 0.71 0.46 1 1017.2
20260906221017 15 309 12.9 19.3 0.00 0.71 0.46 1 1017.0
20260906220519 15 300 12.9 20.9 0.00 0.71 0.46 1 1017.2
20260906220044 15 292 11.3 17.7 0.00 0.71 0.46 1 1017.4
20260906215516 15 296 12.9 20.9 0.00 0.71 0.46 1 1017.4
20260906215016 16 291 11.3 20.9 0.00 0.71 0.46 1 1017.2
20260906214544 16 305 12.9 19.3 0.00 0.71 0.46 1 1017.3
20260906214019 16 275 9.7 16.1 0.00 0.71 0.46 1 1017.2
20260906213516 16 283 6.4 14.5 0.00 0.71 0.46 1 1017.4
20260906213050 16 244 8.0 16.1 0.00 0.71 0.46 1 1017.3
20260906212516 16 271 8.0 17.7 0.00 0.71 0.46 1 1017.3
20260906212017 16 271 12.9 17.7 0.00 0.71 0.46 1 1017.1
20260906211549 16 246 12.9 17.7 0.00 0.71 0.46 1 1017.2
20260906211016 16 299 12.9 17.7 0.00 0.71 0.46 1 1017.2
20260906210517 16 269 9.7 16.1 0.00 0.71 0.46 1 1017.1
20260906210053 16 333 4.8 12.9 0.00 0.71 0.46 1 1017.2
20260906205518 16 333 1.6 14.5 0.00 0.71 0.46 1 1017.0
20260906205016 16 301 6.4 12.9 0.00 0.71 0.46 1 1017.1
20260906204549 15 286 4.8 17.7 0.00 0.71 0.46 1 1017.1
20260906204017 15 312 12.9 17.7 0.00 0.71 0.46 1 1016.9
20260906203518 15 337 11.3 19.3 0.00 0.71 0.46 1 1017.1
20260906203040 15 342 11.3 19.3 0.00 0.71 0.46 1 1017.1
20260906202516 15 329 14.5 19.3 0.00 0.71 0.46 1 1017.2
20260906202019 15 310 9.7 17.7 0.00 0.71 0.46 1 1017.3
20260906201549 15 338 12.9 24.1 0.00 0.71 0.46 1 1017.4
20260906201022 15 311 12.9 24.1 0.00 0.71 0.46 1 1017.3
20260906200519 15 320 16.1 24.1 0.00 0.71 0.46 1 1017.1
20260906200040 15 321 16.1 24.1 0.00 0.71 0.46 1 1017.2
20260906195516 15 315 17.7 24.1 0.00 0.71 0.46 1 1017.1
20260906195021 16 322 12.9 19.3 0.00 0.71 0.46 1 1017.2
20260906194553 16 297 12.9 16.1 0.00 0.71 0.46 1 1017.3
20260906194018 16 290 6.4 19.3 0.00 0.71 0.46 1 1017.3
20260906193519 16 318 12.9 19.3 0.00 0.71 0.46 1 1017.1
20260906193049 16 320 12.9 17.7 0.00 0.71 0.46 1 1017.1
20260906192516 16 317 8.0 16.1 0.00 0.71 0.46 1 1017.0
20260906192019 17 173 1.6 11.3 0.00 0.71 0.46 1 1017.4
20260906191548 17 117 4.8 12.9 0.00 0.71 0.46 1 1017.2
20260906191020 17 98 1.6 12.9 0.00 0.71 0.46 1 1017.3
20260906190518 17 51 4.8 14.5 0.00 0.71 0.46 1 1017.3
20260906190049 17 106 1.6 14.5 0.00 0.71 0.46 1 1017.3
20260906185515 17 71 8.0 16.1 0.00 0.71 0.46 1 1017.2
20260906185017 17 79 11.3 20.9 0.00 0.71 0.46 1 1017.0
20260906184540 17 59 12.9 20.9 0.00 0.71 0.46 1 1016.8
20260906184019 17 77 11.3 19.3 0.00 0.71 0.46 1 1016.8
20260906183519 17 46 11.3 19.3 0.00 0.71 0.46 1 1017.0
20260906183059 16 48 6.4 14.5 0.00 0.71 0.46 1 1017.1
20260906182518 16 15 9.7 14.5 0.00 0.71 0.46 1 1017.1
20260906182017 15 350 6.4 17.7 0.00 0.71 0.46 1 1017.4
20260906181545 14 338 8.0 17.7 0.00 0.71 0.46 1 1017.4
20260906181017 14 327 9.7 16.1 0.03 0.71 0.46 1 1017.7
20260906180516 14 306 8.0 16.1 0.03 0.71 0.46 1 1017.8
20260906180110 14 339 8.0 16.1 0.03 0.71 0.46 1 1018.0
20260906175522 14 13 8.0 14.5 0.03 0.71 0.46 1 1018.1
20260906175019 13 348 6.4 12.9 0.03 0.71 0.46 1 1017.9
20260906174555 13 49 3.2 16.1 0.03 0.71 0.46 1 1018.3
20260906174019 13 20 9.7 22.5 0.03 0.71 0.46 1 1018.1
20260906173517 12 19 14.5 41.8 0.03 0.71 0.46 1 1018.1
20260906173054 12 44 24.1 43.5 0.03 0.71 0.46 1 1017.8
20260906172517 11 28 27.4 43.5 0.03 0.71 0.46 1 1017.8
20260906172018 11 351 27.4 38.6 0.03 0.71 0.46 1 1018.7
20260906171609 11 328 27.4 37.0 0.03 0.71 0.46 1 1018.8
20260906171018 11 336 27.4 38.6 0.03 0.66 0.43 1 1019.1
20260906170518 11 275 25.7 38.6 0.03 0.66 0.43 1 1019.3
20260906170059 12 259 19.3 29.0 0.03 0.66 0.43 1 1019.1
20260906165520 12 324 16.1 22.5 0.08 0.66 0.43 1 1019.3
20260906165017 12 319 11.3 17.7 0.08 0.66 0.43 1 1019.1
20260906164555 12 302 8.0 12.9 0.08 0.66 0.43 1 1018.9
20260906164019 12 343 4.8 8.0 0.08 0.66 0.43 1 1019.1
20260906163518 12 343 1.6 8.0 0.08 0.66 0.43 1 1019.2
20260906163055 12 343 1.6 8.0 0.08 0.66 0.43 1 1019.2
20260906162517 12 343 3.2 14.5 0.08 0.66 0.43 1 1018.9
20260906162018 12 343 8.0 19.3 0.08 0.66 0.43 1 1018.7
20260906161611 12 317 12.9 20.9 0.08 0.66 0.43 1 1018.7
20260906161016 12 346 14.5 24.1 0.05 0.66 0.41 1 1018.8
20260906160520 12 325 17.7 24.1 0.05 0.66 0.41 1 1019.0
20260906160050 11 5 16.1 32.2 0.05 0.66 0.41 1 1019.1
20260906155519 11 321 24.1 32.2 0.00 0.61 0.36 1 1019.1
20260906155019 11 355 22.5 32.2 0.00 0.61 0.36 1 1018.9
20260906154549 11 339 24.1 35.4 0.03 0.61 0.36 1 1018.9
20260906154019 11 346 22.5 38.6 0.15 0.61 0.36 1 1019.2
20260906153517 11 355 29.0 38.6 0.15 0.61 0.36 1 1019.1
20260906153108 11 322 22.5 33.8 0.23 0.61 0.36 1 1019.1
20260906152518 11 317 19.3 30.6 0.30 0.61 0.36 1 1019.6
20260906152016 11 318 20.9 29.0 0.30 0.61 0.36 1 1019.5
20260906151550 11 338 20.9 27.4 0.30 0.61 0.36 1 1019.5
20260906151017 11 333 20.9 27.4 0.30 0.61 0.36 1 1019.7
20260906150519 11 5 19.3 27.4 0.30 0.61 0.36 1 1019.8
20260906150045 11 360 19.3 30.6 0.30 0.61 0.36 1 1019.9
20260906145515 11 333 17.7 30.6 0.30 0.64 0.36 1 1020.0
20260906145018 10 336 22.5 33.8 0.30 0.64 0.36 1 1019.9
20260906144549 10 293 20.9 41.8 0.23 0.56 0.28 1 1020.5
20260906144016 10 279 29.0 46.7 0.15 0.48 0.20 1 1020.5
20260906143519 10 264 29.0 46.7 0.10 0.46 0.18 1 1019.6
20260906143049 11 271 33.8 46.7 0.05 0.36 0.10 1 1020.0
20260906142519 11 253 25.7 37.0 0.00 0.33 0.05 1 1019.9
20260906142023 12 240 17.7 32.2 0.00 0.33 0.05 1 1020.3
20260906141600 14 238 17.7 32.2 0.00 0.33 0.05 1 1020.0
20260906141017 14 53 17.7 25.7 0.00 0.33 0.05 1 1019.2
20260906140518 14 74 17.7 29.0 0.00 0.33 0.05 1 1018.8
20260906140053 15 64 19.3 29.0 0.00 0.33 0.05 1 1019.2
20260906135519 15 63 17.7 30.6 0.00 0.48 0.05 1 1018.9
20260906135016 15 59 20.9 30.6 0.00 0.48 0.05 1 1018.9
20260906134550 14 64 20.9 30.6 0.00 0.48 0.05 1 1018.9
20260906134016 14 34 17.7 29.0 0.00 0.48 0.05 1 1018.9
20260906133517 14 65 20.9 30.6 0.00 0.48 0.05 1 1019.1
20260906133057 14 65 20.9 29.0 0.00 0.48 0.05 1 1018.9
20260906132518 14 40 19.3 27.4 0.00 0.48 0.05 1 1018.9
20260906132017 14 57 19.3 27.4 0.00 0.48 0.05 1 1019.2
20260906131600 14 38 11.3 17.7 0.00 0.48 0.05 1 1019.2
20260906131020 14 32 1.6 6.4 0.00 0.48 0.05 1 1019.1
20260906130519 14 5 1.6 12.9 0.00 0.48 0.05 1 1019.3
20260906130052 15 216 0.0 16.1 0.00 0.48 0.05 1 1019.3
20260906125519 15 13 6.4 24.1 0.00 0.48 0.05 1 1019.3
20260906125017 15 11 14.5 25.7 0.00 0.48 0.05 1 1019.3
20260906124550 14 35 11.3 19.3 0.00 0.48 0.05 1 1019.3
20260906124021 14 27 12.9 20.9 0.00 0.48 0.05 1 1019.2
20260906123518 13 32 9.7 17.7 0.00 0.48 0.05 1 1019.2
20260906123052 13 13 9.7 17.7 0.00 0.48 0.05 1 1019.4
20260906122519 13 305 3.2 12.9 0.00 0.48 0.05 1 1019.5
20260906122019 13 18 4.8 19.3 0.00 0.48 0.05 1 1019.7
20260906121542 14 294 12.9 30.6 0.00 0.48 0.05 1 1019.8
20260906121024 14 11 17.7 38.6 0.00 0.48 0.05 1 1019.7
20260906120518 14 54 29.0 38.6 0.00 0.48 0.05 1 1019.2
20260906120056 14 44 20.9 40.2 0.00 0.48 0.05 1 1019.3
20260906115516 14 29 32.2 40.2 0.00 0.48 0.05 1 1019.0
20260906115017 13 82 19.3 27.4 0.00 0.48 0.05 1 1019.3
20260906114553 13 55 17.7 24.1 0.00 0.48 0.05 1 1019.5
20260906114020 13 54 16.1 24.1 0.00 0.48 0.05 1 1019.4
20260906113519 13 71 4.8 30.6 0.00 0.48 0.05 1 1019.5
20260906113050 13 41 17.7 35.4 0.00 0.48 0.05 1 1019.4
20260906112519 13 36 22.5 35.4 0.00 0.48 0.05 1 1018.8
20260906112017 13 35 19.3 29.0 0.00 0.48 0.05 1 1019.1
20260906111548 14 38 12.9 32.2 0.00 0.48 0.05 1 1018.9
20260906111018 14 55 14.5 27.4 0.00 0.48 0.05 1 1019.1
20260906110517 15 269 14.5 27.4 0.00 0.48 0.05 1 1018.7
20260906110049 15 44 4.8 20.9 0.00 0.48 0.05 1 1019.3
20260906105520 15 337 9.7 22.5 0.00 0.48 0.05 1 1019.2
20260906105022 15 346 11.3 25.7 0.00 0.48 0.05 1 1019.3
20260906104549 15 5 11.3 25.7 0.00 0.48 0.05 1 1019.3
20260906104019 14 97 9.7 35.4 0.00 0.48 0.05 1 1019.3
20260906103520 14 294 4.8 38.6 0.00 0.48 0.05 1 1019.5
20260906103052 14 263 19.3 38.6 0.00 0.48 0.05 1 1019.1
20260906102519 13 261 14.5 38.6 0.00 0.48 0.05 1 1019.3
20260906102016 13 232 12.9 27.4 0.00 0.48 0.05 1 1018.9
20260906101549 13 311 14.5 25.7 0.00 0.48 0.05 1 1019.0
20260906101020 13 305 16.1 25.7 0.00 0.48 0.05 1 1019.5
20260906100523 13 297 14.5 19.3 0.00 0.48 0.05 1 1019.6
20260906100045 13 360 11.3 19.3 0.00 0.48 0.05 1 1019.5
20260906095517 13 340 9.7 16.1 0.00 0.48 0.05 1 1019.4
20260906095019 13 5 6.4 14.5 0.00 0.48 0.05 1 1019.4
20260906094557 13 27 4.8 9.7 0.00 0.48 0.05 1 1019.5
20260906094020 13 352 3.2 14.5 0.00 0.48 0.05 1 1019.5
20260906093518 13 352 3.2 33.8 0.00 0.48 0.05 1 1019.6
20260906093053 12 30 24.1 41.8 0.00 0.48 0.05 1 1019.3
20260906092518 12 26 32.2 41.8 0.00 0.48 0.05 1 1019.5
20260906092021 12 355 27.4 40.2 0.00 0.48 0.05 1 1019.3
20260906091551 12 24 30.6 40.2 0.00 0.48 0.05 1 1019.7
20260906091021 11 317 25.7 41.8 0.00 0.48 0.05 1 1020.1
20260906090520 11 300 17.7 30.6 0.00 0.48 0.05 1 1020.8
20260906090053 10 244 19.3 37.0 0.00 0.48 0.05 1 1021.4
20260906085519 10 265 27.4 37.0 0.00 0.48 0.05 1 1021.4
20260906085019 10 271 27.4 38.6 0.00 0.48 0.05 1 1021.0
20260906084559 11 297 24.1 40.2 0.00 0.48 0.05 1 1020.0
20260906084025 11 315 17.7 40.2 0.00 0.48 0.05 1 1020.2
20260906083518 12 317 27.4 40.2 0.00 0.48 0.05 1 1020.0
20260906083049 12 338 24.1 41.8 0.00 0.48 0.05 1 1019.6
20260906082519 11 352 24.1 43.5 0.00 0.48 0.05 1 1019.7
20260906082019 11 349 30.6 46.7 0.00 0.48 0.05 1 1019.2
20260906081548 11 329 32.2 48.3 0.00 0.48 0.05 1 1019.7
20260906081021 11 336 35.4 48.3 0.00 0.48 0.05 1 1019.7
20260906080521 11 311 25.7 38.6 0.00 0.48 0.05 1 1019.6
20260906075517 12 328 20.9 29.0 0.00 0.48 0.05 1 1020.3
20260906075017 12 338 14.5 24.1 0.00 0.48 0.05 1 1020.3
20260906074556 12 338 19.3 29.0 0.00 0.48 0.05 1 1020.0
20260906074018 12 9 19.3 32.2 0.00 0.48 0.05 1 1019.9
20260906073517 12 5 20.9 32.2 0.00 0.48 0.05 1 1020.2
20260906073054 12 5 20.9 32.2 0.00 0.48 0.05 1 1020.3
20260906072518 12 5 22.5 35.4 0.00 0.48 0.05 1 1020.3
20260906072020 12 342 25.7 37.0 0.00 0.48 0.05 1 1020.5
20260906071552 12 326 25.7 38.6 0.00 0.48 0.05 1 1020.5
20260906071024 12 347 25.7 38.6 0.00 0.48 0.05 1 1020.8
20260906070521 12 338 19.3 33.8 0.03 0.48 0.05 1 1021.0
20260906070059 12 5 20.9 33.8 0.05 0.48 0.05 1 1021.0
20260906065520 12 350 25.7 37.0 0.05 0.48 0.05 1 1020.9
20260906065018 11 350 24.1 37.0 0.05 0.48 0.05 1 1021.0
20260906064552 11 355 25.7 41.8 0.05 0.48 0.05 1 1021.0
20260906064021 11 360 30.6 43.5 0.05 0.48 0.05 1 1020.9
20260906063520 11 336 30.6 43.5 0.05 0.48 0.05 1 1021.4
20260906063102 11 334 29.0 40.2 0.05 0.48 0.05 1 1021.4
20260906062523 12 319 24.1 33.8 0.05 0.48 0.05 1 1022.0
20260906062019 12 305 22.5 30.6 0.05 0.48 0.05 1 1022.0
20260906061550 12 328 22.5 32.2 0.05 0.48 0.05 1 1021.8
20260906061020 12 325 22.5 32.2 0.05 0.48 0.05 1 1021.7
20260906060518 12 349 17.7 27.4 0.03 0.43 0.00 1 1021.8
20260906060133 12 303 16.1 24.1 0.03 0.43 0.00 1 1021.9
20260906055517 12 309 9.7 19.3 0.05 0.43 0.43 1 1021.5
20260906055020 12 340 12.9 20.9 0.05 0.43 0.43 1 1021.2
20260906054606 12 323 16.1 22.5 0.05 0.43 0.43 1 1021.2
20260906054021 12 317 16.1 22.5 0.05 0.43 0.43 1 1021.4
20260906053520 12 330 16.1 25.7 0.05 0.43 0.43 1 1021.4
20260906053056 12 360 16.1 25.7 0.05 0.43 0.43 1 1021.4
20260906052519 12 348 16.1 33.8 0.05 0.43 0.43 1 1021.7
20260906052019 12 360 22.5 35.4 0.05 0.43 0.43 1 1021.5
20260906051601 11 309 22.5 38.6 0.05 0.43 0.43 1 1021.4
20260906051021 11 321 24.1 38.6 0.05 0.43 0.43 1 1021.1
20260906050525 12 334 30.6 40.2 0.03 0.41 0.41 1 1020.6
20260906045521 12 314 20.9 25.7 0.00 0.36 0.36 1 1022.6
20260906045017 12 329 8.0 16.1 0.03 0.36 0.36 1 1022.3
20260906044559 12 283 8.0 14.5 0.05 0.36 0.36 1 1021.4
20260906044023 12 325 6.4 12.9 0.10 0.36 0.36 1 1020.8
20260906043526 12 331 6.4 16.1 0.15 0.36 0.36 1 1020.6
20260906043037 12 335 11.3 24.1 0.20 0.36 0.36 1 1020.5
20260906042518 12 5 16.1 25.7 0.20 0.36 0.36 1 1020.4
20260906042016 12 313 17.7 24.1 0.20 0.36 0.36 1 1020.5
20260906041538 12 329 14.5 25.7 0.20 0.36 0.36 1 1020.8
20260906041018 12 334 14.5 25.7 0.20 0.36 0.36 1 1020.7
20260906040517 12 344 17.7 25.7 0.20 0.36 0.36 1 1020.8
20260906040039 12 332 16.1 33.8 0.20 0.36 0.36 1 1021.0
20260906035517 12 345 20.9 41.8 0.20 0.36 0.36 1 1021.0
20260906035017 12 347 30.6 41.8 0.18 0.36 0.36 1 1019.8
20260906034553 12 347 24.1 33.8 0.10 0.30 0.30 1 1021.3
20260906034019 12 318 20.9 27.4 0.08 0.23 0.23 1 1022.3
20260906033518 13 324 17.7 24.1 0.03 0.20 0.20 1 1022.1
20260906033046 13 303 11.3 27.4 0.00 0.18 0.18 1 1022.3
20260906032517 14 312 17.7 30.6 0.00 0.18 0.18 1 1021.7
20260906032016 15 306 17.7 38.6 0.00 0.18 0.18 1 1020.9
20260906031535 15 339 25.7 38.6 0.00 0.18 0.18 1 1020.4
20260906031017 15 331 22.5 35.4 0.00 0.18 0.18 1 1020.4
20260906030519 15 313 25.7 33.8 0.00 0.18 0.18 1 1020.2
20260906030041 15 304 22.5 32.2 0.00 0.18 0.18 1 1020.0
20260906025520 15 285 22.5 37.0 0.00 0.18 0.18 1 1019.7
20260906025018 15 311 17.7 30.6 0.00 0.18 0.18 1 1019.6
20260906024540 14 309 16.1 35.4 0.00 0.18 0.18 1 1019.6
20260906024019 14 315 17.7 33.8 0.00 0.18 0.18 1 1019.2
20260906023518 14 330 22.5 33.8 0.00 0.18 0.18 1 1019.3
20260906023039 14 342 22.5 33.8 0.00 0.18 0.18 1 1019.3
20260906022517 13 352 24.1 32.2 0.00 0.18 0.18 1 1019.3
20260906022017 14 319 24.1 32.2 0.00 0.18 0.18 1 1019.5
20260906021544 14 355 22.5 33.8 0.00 0.18 0.18 1 1019.5
20260906021017 14 345 22.5 33.8 0.00 0.18 0.18 1 1019.2
20260906020515 14 341 24.1 32.2 0.00 0.18 0.18 1 1019.0
20260906020039 15 340 22.5 30.6 0.00 0.18 0.18 1 1019.3
20260906015516 15 344 20.9 30.6 0.00 0.18 0.18 1 1019.2
20260906015018 15 323 20.9 30.6 0.00 0.18 0.18 1 1019.4
20260906014548 15 320 19.3 25.7 0.00 0.18 0.18 1 1019.6
20260906014018 15 325 16.1 22.5 0.00 0.18 0.18 1 1019.6
20260906013518 15 325 14.5 25.7 0.00 0.18 0.18 1 1019.5
20260906013038 16 296 16.1 24.1 0.00 0.18 0.18 1 1019.3
20260906012516 16 318 17.7 24.1 0.00 0.18 0.18 1 1019.5
20260906012015 16 348 12.9 22.5 0.00 0.18 0.18 1 1019.6
20260906011542 16 320 17.7 25.7 0.00 0.18 0.18 1 1019.4
20260906011016 16 346 16.1 25.7 0.00 0.18 0.18 1 1019.5
20260906010517 16 330 14.5 29.0 0.00 0.18 0.18 1 1019.5
20260906010043 16 323 20.9 32.2 0.00 0.18 0.18 1 1019.4
20260906005518 16 340 20.9 33.8 0.00 0.18 0.18 1 1019.5
20260906005016 16 350 20.9 37.0 0.00 0.18 0.18 1 1019.6
20260906004549 16 344 25.7 35.4 0.00 0.18 0.18 1 1019.6
20260906004017 16 336 19.3 33.8 0.00 0.18 0.18 1 1019.5
20260906003516 16 346 24.1 37.0 0.00 0.18 0.18 1 1019.4
20260906003042 16 329 24.1 37.0 0.00 0.18 0.18 1 1019.7
20260906002515 16 314 19.3 32.2 0.00 0.18 0.18 1 1019.8
20260906002017 16 333 25.7 32.2 0.00 0.18 0.18 1 1019.4
20260906001558 17 352 22.5 33.8 0.00 0.18 0.18 1 1019.6
20260906001016 17 341 25.7 33.8 0.00 0.18 0.18 1 1019.7
20260906000516 17 355 20.9 33.8 0.00 0.18 0.18 1 1019.9
20260906000046 17 355 22.5 32.2 0.00 0.18 0.18 1 1020.0
20260905235517 17 325 20.9 30.6 0.00 0.18 0.18 1 1020.1
20260905235019 17 333 22.5 30.6 0.00 0.18 0.18 1 1020.1
20260905234544 17 340 20.9 30.6 0.00 0.18 0.18 1 1020.2
20260905234016 17 336 19.3 30.6 0.00 0.18 0.18 1 1020.2
20260905233518 17 355 19.3 30.6 0.00 0.18 0.18 1 1020.0
20260905233040 17 333 24.1 30.6 0.00 0.18 0.18 1 1019.9
20260905232520 18 360 20.9 29.0 0.00 0.18 0.18 1 1020.0
20260905232016 18 5 19.3 29.0 0.00 0.18 0.18 1 1019.7
20260905231540 18 328 20.9 30.6 0.00 0.18 0.18 1 1019.9
20260905231019 18 351 16.1 30.6 0.00 0.18 0.18 1 1019.8
20260905230515 18 325 19.3 30.6 0.00 0.18 0.18 1 1019.9
20260905230047 18 317 22.5 29.0 0.00 0.18 0.18 1 1019.8